星链-32558 (STARLINK-32558)

导读

STARLINK-32558是美国SpaceX公司星链星座的成员,于2024年11月30日成功发射,属于SpaceX打造的全球低轨宽带互联网卫星星座。星链卫星采用平板设计,搭载氪工质霍尔推进器,具备自主避撞能力,运行在近地轨道,服务全球高速互联网接入。寿命末期将主动离轨,再入大气层焚毁,减少太空垃圾。作为星链组网卫星,它进一步扩充了星座规模,助力全球覆盖,尤其为偏远地区提供宽带服务。

基本信息
目录编号:
62169
目录名称:
STARLINK-32558
国际标识:
2024-225G
轨道中心:
EARTH
卫星名称:
星链-32558
卫星全名:
星链-32558 (STARLINK-32558)
卫星状态:
在轨 (已飞行564 天)
发射日期:
2024-11-30 UTC
国别 :
美国 (US)
星等 :
--
轨道信息
数据来源 国际轨道数据 AOE轨道数据
星历时间 2026-06-17T19:54:00+0800
9小时前
查看轨道信息
2026-06-15T06:00:00+0800
2天前
查看轨道信息
半长轴 6950.175km 6950.162km
偏心率 0.0003162 0.0002756
轨道倾角 70.002° 70.001°
近地点辐角 267.693° 282.323°
升交点赤经 272.860° 279.361°
平近点角 92.386° 209.745°
近地点 569.84km 570.109km
远地点 574.236km 573.941km
周期 96.107分钟 96.106分钟
每日圈数 14.983359 14.983403
详细信息
固有亮度:
5
最大亮度:
2.5
卫星平台:
Starlink V1.0
覆盖范围:
全球
运营商:
太空探索技术公司
运营商所在国:
美国
制造商(研发单位):
太空探索技术公司
制造商所在国:
美国
使用方式:
暂无
卫星简介
Starlink 计划是 SpaceX 推出的全球卫星互联网项目,通过发射低轨道卫星,为全球尤其是偏远地区提供高速、低延迟的互联网服务。自 2019 年起,Starlink 已部署数千颗卫星,旨在缩小全球数字鸿沟,推动互联网普及。该项目还为军事、航空等行业提供通信支持,带来广泛经济效益。
2D轨道图
3D轨道图
轨道高度分析图
轨道倾角分析图
轨道综合分析图
查看轨道综合分析图